When you browse on this site, cookies collect data to enhance your experience and personalize the content and advertising you see.
Visit our Privacy Policy to learn more. By continuing to use the site, you agree to this use of cookies and data.
  • In Germany
  • List of Countries
  • For 7 days
  • Water Temperature
  • Weather Map
  • Weather Widgets
  • user-avatar
    Login

    Hourly Weather Luanda

    Today, 19 August, Monday

    Time Temperature Precipitation Wind Pressure Humidity
    00:00 +22°C° 0 mm 3 mps 756 mmHg 86%
    01:00 +22°C° 0 mm 3 mps 756 mmHg 87%
    02:00 +22°C° 0 mm 3 mps 755 mmHg 84%
    03:00 +22°C° 0 mm 3 mps 755 mmHg 82%
    04:00 +22°C° 0 mm 3 mps 755 mmHg 79%
    05:00 +22°C° 0 mm 3 mps 755 mmHg 78%
    06:00 +22°C° 0 mm 3 mps 755 mmHg 77%
    07:00 +23°C° 0 mm 2 mps 755 mmHg 75%
    08:00 +24°C° 0 mm 2 mps 755 mmHg 70%
    09:00 +25°C° 0 mm 1 mps 756 mmHg 64%
    10:00 +27°C° 0 mm 1 mps 756 mmHg 59%
    11:00 +28°C° 0 mm 2 mps 755 mmHg 53%
    12:00 +30°C° 0 mm 3 mps 754 mmHg 48%
    13:00 +33°C° 0 mm 5 mps 753 mmHg 43%
    14:00 +30°C° 0 mm 5 mps 753 mmHg 48%
    15:00 +29°C° 0 mm 5 mps 752 mmHg 52%
    16:00 +28°C° 0 mm 6 mps 752 mmHg 57%
    17:00 +26°C° 0 mm 5 mps 752 mmHg 65%
    18:00 +25°C° 0 mm 5 mps 753 mmHg 72%
    19:00 +22°C° 0 mm 5 mps 753 mmHg 80%
    20:00 +22°C° 0 mm 5 mps 754 mmHg 82%
    21:00 +22°C° 0 mm 4 mps 755 mmHg 84%
    22:00 +21°C° 0 mm 3 mps 755 mmHg 86%
    23:00 +21°C° 0 mm 2 mps 755 mmHg 85%

    Tomorrow, 20 August, Tuesday

    Time Temperature Precipitation Wind Pressure Humidity
    00:00 +21°C° 0 mm 2 mps 755 mmHg 84%
    01:00 +23°C° 0 mm 1 mps 755 mmHg 82%
    02:00 +23°C° 0 mm 1 mps 755 mmHg 81%
    03:00 +23°C° 0 mm 1 mps 755 mmHg 79%
    04:00 +23°C° 0 mm 2 mps 754 mmHg 77%
    05:00 +23°C° 0 mm 1 mps 755 mmHg 76%
    06:00 +23°C° 0 mm 1 mps 755 mmHg 74%
    07:00 +21°C° 0 mm 0 mps 756 mmHg 73%
    08:00 +24°C° 0 mm 1 mps 756 mmHg 68%
    09:00 +25°C° 0 mm 1 mps 756 mmHg 64%
    10:00 +26°C° 0 mm 1 mps 756 mmHg 59%
    11:00 +27°C° 0 mm 2 mps 755 mmHg 56%
    12:00 +28°C° 0 mm 3 mps 754 mmHg 53%
    13:00 +29°C° 0 mm 4 mps 753 mmHg 50%
    14:00 +28°C° 0 mm 5 mps 753 mmHg 52%
    15:00 +28°C° 0 mm 5 mps 752 mmHg 55%
    16:00 +27°C° 0 mm 6 mps 752 mmHg 57%
    17:00 +26°C° 0 mm 5 mps 752 mmHg 65%
    18:00 +23°C° 0 mm 5 mps 753 mmHg 72%
    19:00 +22°C° 0 mm 5 mps 754 mmHg 80%
    20:00 +22°C° 0 mm 4 mps 754 mmHg 82%
    21:00 +23°C° 0 mm 2 mps 755 mmHg 84%
    22:00 +22°C° 0 mm 1 mps 756 mmHg 86%
    23:00 +23°C° 0 mm 1 mps 756 mmHg 85%

    Day after tomorrow, 21 August, Wednesday

    Time Temperature Precipitation Wind Pressure Humidity
    00:00 +23°C° 0 mm 1 mps 756 mmHg 84%
    01:00 +23°C° 0 mm 1 mps 756 mmHg 83%
    02:00 +23°C° 0 mm 1 mps 755 mmHg 80%
    03:00 +23°C° 0 mm 1 mps 755 mmHg 78%
    04:00 +23°C° 0 mm 1 mps 755 mmHg 75%
    05:00 +23°C° 0 mm 1 mps 755 mmHg 74%
    06:00 +23°C° 0 mm 1 mps 756 mmHg 72%
    07:00 +23°C° 0 mm 1 mps 756 mmHg 71%
    08:00 +24°C° 0 mm 1 mps 756 mmHg 68%
    09:00 +25°C° 0 mm 1 mps 756 mmHg 64%
    10:00 +25°C° 0 mm 1 mps 757 mmHg 61%
    11:00 +27°C° 0 mm 2 mps 756 mmHg 57%
    12:00 +28°C° 0 mm 3 mps 755 mmHg 52%
    13:00 +29°C° 0 mm 4 mps 754 mmHg 47%
    14:00 +29°C° 0 mm 5 mps 753 mmHg 51%
    15:00 +28°C° 0 mm 5 mps 753 mmHg 55%
    16:00 +27°C° 0 mm 6 mps 752 mmHg 58%
    17:00 +24°C° 0 mm 6 mps 753 mmHg 65%
    18:00 +23°C° 0 mm 6 mps 753 mmHg 73%
    19:00 +22°C° 0 mm 6 mps 754 mmHg 80%
    20:00 +21°C° 0 mm 4 mps 755 mmHg 83%
    21:00 +21°C° 0 mm 2 mps 755 mmHg 85%
    22:00 +22°C° 0 mm 1 mps 756 mmHg 88%
    23:00 +22°C° 0 mm 1 mps 756 mmHg 86%

    22 August, Thursday

    Time Temperature Precipitation Wind Pressure Humidity
    00:00 +20°C° 0 mm 0 mps 756 mmHg 84%
    01:00 +21°C° 0 mm 0 mps 756 mmHg 82%
    02:00 +21°C° 0 mm 0 mps 756 mmHg 80%
    03:00 +21°C° 0 mm 0 mps 756 mmHg 79%
    04:00 +23°C° 0 mm 1 mps 756 mmHg 77%
    05:00 +23°C° 0 mm 1 mps 756 mmHg 76%
    06:00 +23°C° 0 mm 1 mps 757 mmHg 75%
    07:00 +23°C° 0 mm 1 mps 757 mmHg 73%
    08:00 +24°C° 0 mm 1 mps 757 mmHg 68%
    09:00 +25°C° 0 mm 1 mps 757 mmHg 63%
    10:00 +26°C° 0 mm 1 mps 757 mmHg 58%
    11:00 +28°C° 0 mm 2 mps 756 mmHg 55%
    12:00 +29°C° 0 mm 3 mps 755 mmHg 52%
    13:00 +30°C° 0 mm 4 mps 754 mmHg 48%
    14:00 +29°C° 0 mm 5 mps 754 mmHg 52%
    15:00 +28°C° 0 mm 5 mps 753 mmHg 57%
    16:00 +27°C° 0 mm 6 mps 753 mmHg 61%
    17:00 +24°C° 0 mm 6 mps 753 mmHg 67%
    18:00 +23°C° 0 mm 6 mps 754 mmHg 73%
    19:00 +22°C° 0 mm 5 mps 754 mmHg 78%
    20:00 +22°C° 0 mm 4 mps 755 mmHg 80%
    21:00 +21°C° 0 mm 2 mps 755 mmHg 82%
    22:00 +22°C° 0 mm 1 mps 756 mmHg 84%
    23:00 +22°C° 0 mm 1 mps 756 mmHg 85%

    23 August, Friday

    Time Temperature Precipitation Wind Pressure Humidity
    00:00 +22°C° 0 mm 1 mps 756 mmHg 85%
    01:00 +22°C° 0 mm 1 mps 756 mmHg 86%
    02:00 +21°C° 0 mm 1 mps 756 mmHg 86%
    03:00 +20°C° 0 mm 2 mps 756 mmHg 86%
    04:00 +20°C° 0 mm 2 mps 756 mmHg 85%
    05:00 +20°C° 0 mm 2 mps 756 mmHg 83%
    06:00 +21°C° 0 mm 2 mps 757 mmHg 82%
    07:00 +21°C° 0 mm 2 mps 757 mmHg 80%
    08:00 +24°C° 0 mm 2 mps 757 mmHg 71%
    09:00 +26°C° 0 mm 2 mps 757 mmHg 62%
    10:00 +28°C° 0 mm 1 mps 757 mmHg 53%
    11:00 +29°C° 0 mm 2 mps 756 mmHg 50%
    12:00 +30°C° 0 mm 3 mps 755 mmHg 46%
    13:00 +32°C° 0 mm 4 mps 754 mmHg 43%
    14:00 +29°C° 0 mm 5 mps 753 mmHg 49%
    15:00 +28°C° 0 mm 6 mps 753 mmHg 54%
    16:00 +27°C° 0 mm 6 mps 753 mmHg 60%
    17:00 +24°C° 0 mm 6 mps 753 mmHg 66%
    18:00 +23°C° 0 mm 6 mps 754 mmHg 71%
    19:00 +22°C° 0 mm 6 mps 755 mmHg 77%
    20:00 +22°C° 0 mm 4 mps 755 mmHg 80%
    21:00 +21°C° 0 mm 3 mps 756 mmHg 82%
    22:00 +22°C° 0 mm 1 mps 757 mmHg 84%
    23:00 +22°C° 0 mm 1 mps 757 mmHg 84%

    24 August, Saturday

    Time Temperature Precipitation Wind Pressure Humidity
    00:00 +20°C° 0 mm 0 mps 757 mmHg 83%
    01:00 +20°C° 0 mm 0 mps 757 mmHg 83%
    02:00 +21°C° 0 mm 0 mps 757 mmHg 81%
    03:00 +21°C° 0 mm 0 mps 757 mmHg 79%
    04:00 +23°C° 0 mm 1 mps 757 mmHg 77%
    05:00 +23°C° 0 mm 1 mps 757 mmHg 74%
    06:00 +23°C° 0 mm 1 mps 757 mmHg 72%
    07:00 +24°C° 0 mm 1 mps 758 mmHg 69%
    08:00 +24°C° 0 mm 1 mps 758 mmHg 66%
    09:00 +25°C° 0 mm 1 mps 758 mmHg 63%
    10:00 +23°C° 0 mm 0 mps 758 mmHg 60%
    11:00 +27°C° 0 mm 1 mps 757 mmHg 55%
    12:00 +28°C° 0 mm 2 mps 756 mmHg 50%
    13:00 +30°C° 0 mm 3 mps 755 mmHg 45%
    14:00 +29°C° 0 mm 4 mps 755 mmHg 47%
    15:00 +28°C° 0 mm 4 mps 754 mmHg 50%
    16:00 +27°C° 0 mm 5 mps 754 mmHg 53%
    17:00 +26°C° 0 mm 5 mps 754 mmHg 61%
    18:00 +25°C° 0 mm 5 mps 754 mmHg 69%
    19:00 +22°C° 0 mm 5 mps 755 mmHg 76%
    20:00 +22°C° 0 mm 4 mps 755 mmHg 79%
    21:00 +21°C° 0 mm 3 mps 756 mmHg 82%
    22:00 +21°C° 0 mm 2 mps 756 mmHg 85%
    23:00 +22°C° 0 mm 1 mps 756 mmHg 86%
    Show more